737  
ASUS41 KBTV 251010  
RWRBTV  
VERMONT REGIONAL WEATHER ROUNDUP  
NATIONAL WEATHER SERVICE BURLINGTON VT  
600 AM EDT SUN JUN 25 2017  
 
NOTE: "FAIR" INDICATES FEW OR NO CLOUDS BELOW 12,000 FEET WITH NO  
SIGNIFICANT WEATHER AND/OR S TO VISIBILITY
.  
 
* THESE REPORTS ARE NOT UNDER NWS QUALITY CONTROL AND/OR DO NOT  
REPORT WEATHER SUCH AS PRECIPITATION AND FOG.
 
 
VTZ001>019-251100-  
_____VERMONT_____  
 
 
CITY SKY/WX TMP DP RH WIND PRES REMARKS
 
BURLINGTON PTCLDY 58 54 86 CALM 29.90R  
MONTPELIER CLEAR 53 51 93 CALM 29.94R  
MORRISVILLE PTCLDY 52 51 97 CALM 29.92R  
ST. JOHNSBURY* N/A 53 53 100 MISG 29.88R  
LYNDONVILLE* FAIR 53 51 92 CALM 29.91S  
MIDDLEBURY* FAIR 56 53 88 SE3 29.91R  
RUTLAND* CLEAR 55 50 83 E6 29.93R  
SPRINGFIELD CLEAR 53 50 89 CALM 29.93R  
HIGHGATE* FAIR 56 55 96 CALM 29.88R  
NEWPORT* FAIR 53 51 95 CALM 29.91R  
BENNINGTON CLEAR 52 50 93 CALM 29.94R  
SUTTON* N/A 55 N/A N/A MISG N/A  
 
_____LAKE CHAMPLAIN_____  
 
 
CITY SKY/WX TMP DP RH WIND PRES REMARKS
 
BURTON ISLAND* N/A 64 55 72 SW6 N/A  
COLCHESTER RF* N/A 63 57 82 SE9 N/A  
DIAMOND ISL* N/A 63 55 77 SW1 N/A  
 

 
 
NYZ007-026>031-035-052-083-087-251100-  
_____NORTHERN NEW YORK_____  
 
 
CITY SKY/WX TMP DP RH WIND PRES REMARKS
 
PLATTSBURGH CLEAR 60 54 80 S3 29.88R  
SARANAC LAKE CLOUDY 55 55 100 SW9 29.92R  
MASSENA CLEAR 55 55 100 SW5 29.90R  
OGDENSBURG* FAIR 55 54 97 CALM 29.90R  
POTSDAM* CLEAR 55 55 100 CALM 29.91R  
WATERTOWN CLOUDY 58 58 100 SE3 29.91S  
FT DRUM PTCLDY 57 55 94 SW3 29.91S  
ALBANY PTCLDY 58 53 84 CALM 29.93S  
GLENS FALLS CLEAR 54 51 90 CALM 29.92R  
 

 
NHZ002-005-011-251100-  
_____NEW HAMPSHIRE_____  
 
 
CITY SKY/WX TMP DP RH WIND PRES REMARKS
 
LEBANON CLEAR 55 52 89 CALM 29.90R  
KEENE CLEAR 54 53 97 CALM 29.93R  
MT WASHINGTON FOG 41 41 100 W37 N/A VSB 0 WCI 29  
PLYMOUTH FAIR 54 51 89 CALM 29.90R  
WHITEFIELD CLEAR 50 47 89 CALM 29.91R  
 

 
 
_____REGIONAL QUEBEC LOCATIONS_____  
 
 
CITY SKY/WX TMP DP RH WIND PRES REMARKS
 
MONTREAL MOCLDY 61 57 88 SW9 29.87R  
QUEBEC CITY PTCLDY 55 50 82 W7 29.82R  
SHERBROOKE CLOUDY 57 57 100 S3 29.87R  
 
_____REGIONAL ONTARIO LOCATIONS_____  
 
 
CITY SKY/WX TMP DP RH WIND PRES REMARKS
 
OTTAWA PTCLDY 54 54 100 SW3 29.88S  
 
______KEY______  
VSB - VISIBILITY IN MILES  
WCI - WIND CHILL INDEX  
HX - HEAT INDEX  

 
NNNN  
 
 
CLICK HERE TO GO TO PREVIOUS BULLETINS.

The Nexlab VT Page
The Nexlab NY Page Main Text Page